Theta_e
297 290 287 291 293 295 293 291 290 294 298 294 294 295 297 298 296 294 294 296 296 299 303 303 305 336 342 339 338 338 341 342 339 343 340 341 336 339 339 342 342 342 344 343
291 288 295 296 297 295 294 291 291 295 298 296 294 294 298 296 297 296 297 298 297 297 301 303 303 334 339 338 338 338 341 342 341 342 341 342 341 342 343 343 344 345 344 344
289 293 298 296 294 293 292 290 290 290 294 296 294 292 295 299 298 299 299 298 299 300 300 302 303 311 337 337 336 337 338 339 338 337 343 345 344 344 344 343 344 345 346 346
292 296 296 294 292 293 288 295 294 292 290 285 296 283 292 295 297 298 299 298 298 299 301 303 302 302 334 336 337 338 337 337 332 332 341 343 341 339 343 344 342 345 346 342
291 294 293 291 293 298 293 298 294 292 288 287 289 287 290 295 294 296 299 300 300 300 300 300 301 302 330 336 335 336 336 334 334 338 343 343 341 342 344 342 341 341 339 337
294 299 298 297 300 299 298 293 292 291 287 281 287 287 287 290 293 296 299 299 301 301 303 304 303 303 309 332 333 335 335 334 338 343 345 344 341 342 340 338 337 337 335 334
292 294 298 301 293 296 293 287 280 280 279 280 289 286 288 294 297 298 298 300 302 302 302 304 301 301 306 332 332 332 333 333 337 342 343 343 340 342 339 338 337 334 332 332
285 282 293 298 293 289 287 286 278 275 273 279 288 283 287 296 300 301 302 301 300 301 301 303 304 303 304 334 335 335 331 329 335 337 336 339 341 341 339 338 335 333 331 331
286 286 296 296 296 294 285 281 290 284 285 281 282 286 292 296 296 298 298 299 299 299 302 302 304 300 306 328 336 337 335 330 334 335 330 339 342 339 336 334 333 332 331 327
291 284 293 295 295 295 290 293 281 286 278 276 279 282 283 290 293 296 296 297 298 300 301 299 300 301 306 329 335 336 340 334 333 342 335 336 338 337 333 332 331 330 327 324
292 287 288 293 289 285 286 283 288 288 286 277 277 280 289 291 293 294 296 299 298 299 302 301 300 302 308 328 335 337 340 340 340 340 338 335 335 334 333 331 329 326 324 321
291 288 284 286 293 294 290 289 289 283 282 285 281 282 294 292 294 295 296 299 298 301 300 303 302 302 310 324 334 336 337 337 337 337 335 334 334 333 331 328 325 324 321 320
292 285 281 282 285 290 289 291 292 292 290 283 281 283 295 296 296 297 297 299 301 300 302 305 308 308 315 329 334 334 335 335 337 336 334 331 329 329 326 324 324 323 320 318
296 287 286 280 284 286 284 287 290 288 282 283 284 287 293 295 295 297 298 299 301 300 310 317 314 314 314 331 331 331 332 335 336 334 331 330 328 326 324 323 321 319 318 313
292 284 287 288 289 289 288 288 288 285 287 283 286 288 290 293 294 293 294 297 300 302 307 313 315 317 324 322 321 319 320 329 335 331 329 326 325 323 322 319 316 312 310 308
292 285 289 286 289 289 287 288 285 286 285 285 286 285 292 294 294 293 293 293 295 300 305 309 314 321 319 318 318 320 323 328 332 328 324 323 321 320 316 313 309 307 306 305
290 287 286 281 287 287 282 284 283 284 286 284 280 285 290 289 289 290 291 291 293 296 305 309 316 318 318 317 318 319 319 322 328 323 320 319 317 314 312 310 307 304 302 301
289 289 286 282 285 276 285 289 287 284 286 287 287 289 288 287 289 290 291 290 291 294 299 313 317 315 318 317 319 321 318 317 317 317 317 316 315 312 309 306 303 301 300 298
293 290 285 282 279 284 284 284 283 281 281 288 284 285 286 288 288 289 292 293 292 294 299 313 319 318 317 317 318 318 317 315 314 314 314 314 312 309 307 304 302 299 297 296
293 292 286 282 278 276 280 286 289 288 278 286 285 284 285 286 282 289 295 294 294 297 306 316 320 318 318 318 318 317 316 314 312 313 313 312 311 308 305 303 301 298 297 295
284 284 280 281 279 282 285 288 289 277 278 285 285 285 286 284 289 294 297 295 298 303 317 319 319 317 317 317 316 313 313 312 313 314 313 312 309 307 305 302 299 297 296 294
284 282 279 281 277 277 290 287 280 283 285 285 285 286 286 290 296 300 300 306 314 315 317 318 316 315 316 315 313 311 310 312 312 312 310 309 307 306 305 301 298 297 295 293
284 287 284 283 282 290 291 286 289 288 284 285 285 290 292 299 308 311 311 311 314 316 314 315 312 312 313 313 311 309 310 311 310 309 309 308 307 305 303 299 297 297 296 294
290 293 286 285 287 288 288 289 289 288 285 289 293 293 307 308 309 310 310 311 310 313 312 312 311 309 308 310 310 310 310 311 310 308 305 303 301 301 301 301 300 299 296 291
287 288 287 285 288 287 289 288 288 286 288 292 293 297 305 309 308 309 309 309 309 309 309 309 308 308 308 309 309 310 310 306 299 298 297 296 294 293 291 291 293 293 292 292
287 283 284 282 286 284 285 288 289 285 290 291 292 296 303 307 307 308 307 308 308 307 307 307 307 307 307 308 307 304 303 302 298 293 293 292 292 292 291 290 289 290 291 290
Wind_Speed
5 2 7 13 14 17 16 19 21 20 17 10 18 21 17 9 8 9 9 11 8 10 8 8 3 11 13 15 16 11 14 13 10 11 9 5 8 7 6 6 6 8 6 6
4 8 14 14 15 16 20 21 23 24 20 18 16 25 19 6 9 8 11 13 10 6 6 6 3 7 17 18 18 14 15 17 16 12 10 12 10 8 8 6 6 6 6 8
7 12 12 13 12 13 13 12 14 19 9 9 14 30 17 16 8 9 11 9 10 13 14 6 6 9 13 16 18 17 15 19 15 9 6 6 5 4 4 4 5 4 8 10
11 8 11 14 16 13 19 11 17 20 15 13 7 24 19 9 19 17 16 13 11 14 12 6 8 6 15 17 19 21 20 18 14 10 9 12 13 10 4 6 5 8 10 10
8 16 15 10 9 4 7 14 12 8 9 8 10 10 24 11 17 16 17 15 13 13 12 10 9 8 15 16 16 19 20 18 17 14 13 9 10 8 7 9 13 12 8 10
12 16 5 6 3 4 5 6 8 4 4 12 8 14 24 13 14 17 15 12 13 12 14 15 9 9 10 17 18 19 21 20 16 16 15 10 11 13 11 12 12 9 8 8
13 6 5 4 4 2 2 3 5 4 0 11 4 14 19 8 10 13 14 17 18 14 12 16 9 9 9 18 20 19 22 22 20 19 17 10 10 15 17 16 13 13 8 7
4 10 5 2 10 9 10 8 6 6 3 8 1 9 8 10 14 17 17 13 11 12 12 15 14 13 13 15 22 21 21 19 21 19 14 11 11 8 9 12 13 10 9 8
5 9 16 20 22 4 6 4 7 6 12 10 5 7 11 15 12 11 16 8 10 10 14 16 15 11 13 13 20 23 22 21 20 17 12 13 12 14 10 11 13 10 10 10
6 16 11 11 7 10 11 6 2 3 5 6 6 8 9 5 4 7 8 5 8 9 8 8 8 10 11 12 15 20 21 23 21 17 13 12 7 14 14 13 14 13 12 14
6 8 11 9 7 7 2 2 3 4 4 4 5 7 8 8 7 8 8 9 9 9 7 8 7 8 16 14 15 20 20 19 18 17 17 16 18 18 18 16 17 15 14 13
2 4 8 11 22 11 10 10 8 5 5 6 4 14 6 9 5 6 9 8 6 8 7 7 9 4 13 12 14 17 16 17 20 22 21 16 24 22 19 17 17 19 18 13
7 4 6 7 6 5 0 1 6 9 4 11 7 9 3 5 8 9 9 9 11 7 11 9 7 2 15 16 15 16 15 15 16 22 22 20 23 16 20 18 16 16 17 12
8 2 7 7 13 10 19 19 14 11 7 14 20 29 14 14 7 9 13 14 14 11 8 10 5 7 10 13 15 15 15 18 19 19 22 21 19 19 17 17 19 16 14 11
4 5 7 13 21 21 22 24 7 7 7 10 17 20 13 13 9 8 12 13 14 15 10 6 5 1 9 15 15 12 8 5 20 20 22 22 21 20 18 19 16 17 14 12
3 6 8 15 21 17 18 8 3 5 9 14 18 24 11 9 11 13 15 12 14 17 12 3 3 9 12 22 17 16 12 5 21 22 22 24 25 21 19 18 20 19 14 13
2 5 4 9 12 20 8 8 2 10 11 14 18 18 9 16 21 21 22 15 13 16 13 6 4 9 17 18 24 21 19 11 26 29 28 26 24 23 21 19 20 15 14 13
4 3 4 9 11 5 3 4 9 14 21 15 19 7 12 20 20 26 24 20 17 16 13 6 5 11 18 19 23 24 25 13 17 23 27 25 24 24 21 21 17 15 13 12
5 2 6 5 7 16 5 4 9 16 31 4 5 19 25 24 21 30 27 21 19 16 10 7 10 17 20 19 17 21 25 24 13 19 26 22 22 24 21 19 16 14 13 12
5 8 2 4 6 7 3 11 17 14 8 6 22 26 26 20 12 15 10 18 20 15 11 13 15 21 21 20 21 22 22 26 15 18 21 20 21 21 20 18 17 12 12 12
7 4 4 6 6 7 5 17 14 5 9 25 27 25 26 17 13 23 9 13 13 14 17 15 18 20 21 23 25 25 22 26 19 20 21 19 20 20 19 19 14 13 13 12
5 6 3 4 5 7 11 12 5 11 21 24 26 25 27 23 21 8 14 13 17 19 21 19 22 18 18 21 24 25 24 21 22 22 22 20 19 15 14 18 14 14 13 13
4 2 5 3 6 18 13 14 13 16 20 21 24 27 24 13 12 16 16 13 11 24 19 23 21 20 17 20 25 23 23 22 22 23 20 19 18 15 14 16 14 12 11 10
4 2 4 5 2 8 15 13 16 20 20 24 22 24 7 12 11 17 18 10 12 21 23 24 25 22 20 19 21 26 23 21 22 22 19 15 14 14 12 9 9 9 9 9
4 2 3 7 5 14 3 15 19 24 22 25 28 19 12 20 18 17 15 14 17 22 21 22 22 21 21 21 20 21 24 20 19 18 16 15 11 12 10 7 5 6 5 9
3 4 2 5 6 4 10 15 18 16 20 24 22 20 20 18 19 23 16 14 20 23 23 23 23 21 20 21 20 19 18 19 20 17 13 12 11 10 9 9 11 20 16 18
Wind_Direction
253 146 231 244 222 240 254 261 269 267 282 279 289 283 283 272 267 259 257 268 232 259 260 253 181 148 160 168 171 189 165 167 151 163 157 151 181 181 176 182 194 179 177 132
349 256 247 247 252 245 249 258 269 270 270 263 271 277 286 258 258 250 257 264 263 249 254 259 264 153 162 172 182 188 179 171 176 183 181 172 171 181 180 167 173 173 157 117
227 253 275 271 282 286 277 280 289 285 288 269 289 276 272 272 252 253 252 250 256 252 260 234 239 167 166 175 176 186 194 183 176 192 156 129 120 107 110 166 158 121 119 119
270 279 248 269 269 277 282 291 290 290 292 287 185 281 261 267 266 249 250 248 249 251 254 235 213 192 169 186 183 182 188 190 185 178 169 174 183 147 143 164 124 115 124 119
284 311 287 263 261 356 301 309 299 304 297 295 231 267 277 221 255 249 250 249 244 246 248 235 205 217 180 179 186 193 184 191 184 183 182 191 179 143 144 132 123 120 112 114
288 289 243 274 68 93 23 358 310 239 150 257 198 218 267 256 256 250 240 237 243 238 245 249 205 215 159 180 186 190 191 198 195 191 185 181 153 144 137 137 127 126 124 114
327 319 324 68 350 302 38 10 319 298 254 256 185 242 263 272 291 262 245 237 244 242 233 244 219 205 173 177 187 191 190 195 200 196 190 171 153 147 146 143 133 133 123 124
323 326 358 323 302 280 261 182 179 269 236 293 69 247 252 222 245 265 244 238 235 245 236 237 231 217 192 175 183 185 190 194 199 189 185 173 151 147 144 142 130 121 128 128
295 267 302 292 282 244 276 163 225 253 259 254 235 275 285 255 259 282 271 222 232 258 238 225 223 191 199 180 184 186 186 196 194 184 166 174 161 144 132 125 117 126 131 129
235 289 284 305 328 263 199 189 345 187 255 247 256 243 237 283 277 304 315 281 262 271 277 224 219 178 192 182 179 182 185 190 190 185 183 180 174 148 125 128 127 134 134 121
186 213 278 302 219 222 327 203 178 210 228 262 288 245 216 213 224 259 269 266 274 286 299 311 256 196 186 180 172 181 184 180 175 162 161 164 147 145 150 139 139 137 122 122
269 260 271 257 273 277 256 262 237 237 222 221 260 261 201 192 245 297 293 301 289 278 277 289 291 219 181 168 181 176 178 169 155 148 148 144 145 171 145 140 141 132 129 125
186 229 293 318 350 15 113 156 231 239 234 237 264 263 325 345 331 336 338 346 327 323 313 283 278 195 167 173 169 167 166 156 147 146 145 144 135 151 128 130 130 130 119 127
143 246 230 254 278 286 286 281 275 265 245 268 247 276 267 286 318 326 321 319 317 309 312 298 318 295 178 167 153 161 161 157 145 143 140 140 133 128 126 130 127 122 120 106
153 241 233 246 265 275 270 272 266 276 267 266 286 272 300 291 288 298 302 304 311 310 322 306 315 332 136 104 100 91 67 117 145 143 137 132 126 123 129 126 115 101 99 102
185 271 257 275 277 270 269 218 242 274 272 265 263 270 298 323 312 306 305 305 302 301 316 239 250 167 128 108 98 84 63 140 146 142 131 126 121 130 120 109 103 99 104 102
247 297 293 283 298 305 276 146 333 283 290 275 268 273 323 319 307 295 291 285 283 287 321 212 225 140 126 108 104 94 77 32 158 138 130 127 124 116 108 104 95 104 104 102
203 271 265 289 316 276 95 124 307 286 294 281 266 275 298 289 283 281 267 259 254 260 287 197 170 125 126 118 109 108 94 72 92 106 117 116 117 111 106 98 103 105 100 102
199 256 281 298 298 270 144 27 320 323 305 311 336 314 307 297 287 273 248 235 228 237 252 209 144 131 124 127 124 117 108 100 78 99 96 112 114 106 107 108 114 103 109 101
308 299 233 293 290 276 79 323 329 313 266 323 329 298 293 300 289 280 198 187 205 217 233 149 139 118 129 121 118 116 116 111 110 102 102 104 109 109 111 116 106 113 108 106
312 305 243 271 262 272 358 341 318 329 290 312 302 292 293 286 263 276 270 178 189 199 164 127 130 124 130 126 116 108 109 109 120 113 109 112 104 110 111 106 120 117 111 111
306 312 316 298 282 297 10 344 350 295 292 295 299 296 297 292 293 144 141 152 157 153 126 135 116 121 120 118 112 112 106 115 117 115 109 107 112 116 115 115 117 119 117 111
290 217 293 226 262 296 336 314 307 306 302 304 304 308 297 265 116 123 115 107 130 133 119 112 110 112 112 117 116 108 117 116 115 109 113 115 114 113 115 125 127 123 120 115
255 151 258 316 244 313 319 331 321 321 314 313 323 325 7 85 90 105 108 87 101 112 109 112 111 107 108 109 110 113 113 115 113 112 108 110 108 114 120 123 122 124 119 117
227 8 301 260 318 315 306 336 328 323 327 337 340 342 42 83 77 90 89 102 103 94 98 99 100 103 103 105 106 110 112 110 104 106 107 105 100 97 91 71 95 110 91 122
172 217 320 288 330 280 293 318 327 327 337 337 341 350 42 69 88 91 83 88 94 94 90 91 96 98 103 108 102 96 105 110 112 109 106 109 113 111 110 107 87 54 90 95